Location: Bailleul
(50.3375°N, 2.8513°E)
Time: 13:46:42
(UTC+00:00)

Terra - Pass Details

Date: 03 August 2021
Orbit: 701 x 703 km, 98.2° (Epoch: 28 September)

Event Time Altitude Azimuth Distance (km) Brightness Sun altitude
Exits shadow 21:06:23 19° 140° (SE) 1,639 3.1 -12.9°
Maximum altitude 21:09:38 54° 70° (ENE) 858 2.1 -13.3°
Drops below altitude 10° 21:14:17 10° 354° (N) 2,185 5.3 -13.7°
Sets 21:16:35 0° 350° (N) 3,108 6.3 -14.0°
